Location: Champs
(48.8539°N, 2.6040°E)
Time: 11:25:54
(UTC+00:00)

SL-4 R/B - Pass Details

Date: 26 October 2021
Orbit: 427 x 661 km, 51.6° (Epoch: 07 December)

Event Time Altitude Azimuth Distance (km) Brightness Sun altitude
Exits shadow 04:13:56 32° 181° (S) 986 3.2 -22.4°
Drops below altitude 10° 04:16:41 10° 148° (SSE) 1,814 5.0 -22.0°
Sets 04:18:55 0° 140° (SE) 2,659 6.0 -21.6°
